Date String (YYYY-MM-DD hh:mm:ss) UTC,Instrument flags,Ambient pressure (hPa),Sample flow (lpm),Bypass flow (lpm),Sample temperature (°C),Ambient temperature (°C),ASC tube jacket temperature (°C),LED temperature (°C),Box temperature (°C),Sample RH (%),Span deviation,Mass concentration (μg/m³),Mass concentration (μg/m³),Mass concentration (μg/m³)
DateTimeUTC,F1_M11,P_M11,Q1_M11,Q2_M11,T1_M11,T2_M11,T3_M11,T4_M11,T5_M11,U1_M11,ZSPAN_M11,X2_M11,X0_M11,X1_M11
2023-02-11 06:00:00,,0828.9,5.01,0.00,22.4,20.5,00.0,31.3,24.1,09.4,0000.0,0005.57,0019.88,0004.40
2023-02-11 06:01:00,,0828.8,5.01,0.00,22.3,20.4,00.0,31.3,24.0,09.4,0000.0,0005.58,0019.06,0004.39
2023-02-11 06:02:00,,0828.7,4.99,0.00,22.3,20.3,00.0,31.3,23.9,09.4,0000.0,0005.61,0018.42,0004.40
2023-02-11 06:03:00,,0828.9,5.01,0.00,22.3,20.4,00.0,31.2,23.9,09.4,0000.0,0005.61,0018.64,0004.40
2023-02-11 06:04:00,,0828.6,5.04,0.00,22.3,21.4,00.0,31.2,24.2,09.4,0000.0,0005.62,0018.07,0004.40
2023-02-11 06:05:00,,0829.1,5.00,0.00,22.4,22.5,00.0,31.2,24.5,09.4,0000.0,0005.64,0018.21,0004.40
2023-02-11 06:06:00,,0829.2,5.03,0.00,22.5,22.8,00.0,31.2,24.6,09.3,0000.0,0005.60,0018.25,0004.40
2023-02-11 06:07:00,,0829.0,4.99,0.00,22.6,22.4,00.0,31.3,24.6,09.3,0000.0,0005.66,0019.11,0004.40
2023-02-11 06:08:00,,0829.2,4.97,0.00,22.6,22.0,00.0,31.3,24.5,09.3,0000.0,0005.68,0019.02,0004.41
2023-02-11 06:09:00,,0828.8,4.98,0.00,22.6,21.7,00.0,31.3,24.4,09.3,0000.0,0005.63,0019.18,0004.39
2023-02-11 06:10:00,,0828.7,5.01,0.00,22.5,21.4,00.0,31.3,24.3,09.4,0000.0,0005.56,0018.03,0004.38
2023-02-11 06:11:00,,0828.6,4.98,0.00,22.5,21.1,00.0,31.3,24.2,09.4,0000.0,0005.56,0017.10,0004.38
2023-02-11 06:12:00,,0829.2,4.97,0.00,22.5,20.9,00.0,31.3,24.2,09.4,0000.0,0005.61,0016.77,0004.40
2023-02-11 06:13:00,,0829.1,5.00,0.00,22.4,20.8,00.0,31.3,24.1,09.4,0000.0,0005.65,0017.76,0004.40
2023-02-11 06:14:00,,0829.1,4.99,0.00,22.4,20.6,00.0,31.3,24.1,09.4,0000.0,0005.64,0017.47,0004.39
2023-02-11 06:15:00,,0829.1,4.99,0.00,22.4,20.5,00.0,31.3,24.0,09.4,0000.0,0005.60,0016.95,0004.36
2023-02-11 06:16:00,,0829.0,5.00,0.00,22.3,20.4,00.0,31.3,23.9,09.4,0000.0,0005.58,0017.05,0004.34
2023-02-11 06:17:00,,0828.7,5.00,0.00,22.3,20.3,00.0,31.3,23.9,09.4,0000.0,0005.55,0017.88,0004.30
2023-02-11 06:18:00,,0828.8,4.99,0.00,22.2,20.2,00.0,31.3,23.8,09.4,0000.0,0005.42,0017.08,0004.25
2023-02-11 06:19:00,,0829.1,4.99,0.00,22.2,20.2,00.0,31.2,23.8,09.4,0000.0,0005.35,0017.17,0004.21
2023-02-11 06:20:00,,0828.9,5.06,0.00,22.2,21.3,00.0,31.2,24.1,09.4,0000.0,0005.33,0016.80,0004.18
2023-02-11 06:21:00,,0829.1,5.00,0.00,22.4,22.4,00.0,31.1,24.3,09.3,0000.0,0005.26,0016.79,0004.14
2023-02-11 06:22:00,,0829.0,5.01,0.00,22.5,22.7,00.0,31.2,24.4,09.3,0000.0,0005.16,0016.75,0004.10
2023-02-11 06:23:00,,0828.9,4.97,0.00,22.4,22.1,00.0,31.2,24.3,09.2,0000.0,0005.11,0016.73,0004.06
2023-02-11 06:24:00,,0828.5,5.02,0.00,22.4,21.6,00.0,31.3,24.2,09.2,0000.0,0005.01,0015.83,0004.02
2023-02-11 06:25:00,,0828.5,4.98,0.00,22.4,21.3,00.0,31.3,24.1,09.2,0000.0,0005.00,0015.60,0004.00
2023-02-11 06:26:00,,0828.5,4.96,0.00,22.4,21.0,00.0,31.3,24.0,09.2,0000.0,0004.98,0016.61,0003.99
2023-02-11 06:27:00,,0828.5,4.99,0.00,22.3,20.8,00.0,31.2,24.0,09.2,0000.0,0005.03,0016.41,0004.01
2023-02-11 06:28:00,,0828.5,5.02,0.00,22.3,20.6,00.0,31.2,23.9,09.2,0000.0,0005.03,0015.71,0004.03
2023-02-11 06:29:00,,0828.5,5.00,0.00,22.2,20.4,00.0,31.2,23.8,09.2,0000.0,0005.08,0015.55,0004.07
2023-02-11 06:30:00,,0828.5,5.02,0.00,22.2,20.3,00.0,31.2,23.8,09.3,0000.0,0005.10,0016.40,0004.09
2023-02-11 06:31:00,,0828.6,5.00,0.00,22.1,20.1,00.0,31.2,23.7,09.3,0000.0,0005.14,0018.56,0004.10
2023-02-11 06:32:00,,0828.5,5.01,0.00,22.1,20.1,00.0,31.2,23.7,09.3,0000.0,0005.22,0019.42,0004.12
2023-02-11 06:33:00,,0828.6,4.98,0.00,22.1,20.9,00.0,31.1,23.9,09.2,0000.0,0005.30,0019.68,0004.16
2023-02-11 06:34:00,,0828.5,4.96,0.00,22.2,22.0,00.0,31.1,24.2,09.2,0000.0,0005.32,0021.53,0004.18
2023-02-11 06:35:00,,0828.5,4.95,0.00,22.3,22.7,00.0,31.1,24.3,09.1,0000.0,0005.35,0022.39,0004.21
2023-02-11 06:36:00,,0828.5,4.95,0.00,22.4,22.0,00.0,31.1,24.2,09.1,0000.0,0005.35,0022.05,0004.23
2023-02-11 06:37:00,,0828.5,4.99,0.00,22.3,21.4,00.0,31.2,24.0,09.2,0000.0,0005.33,0023.26,0004.23
2023-02-11 06:38:00,,0828.5,5.00,0.00,22.2,21.0,00.0,31.2,23.8,09.4,0000.0,0005.27,0023.50,0004.21
2023-02-11 06:39:00,,0828.5,5.03,0.00,22.2,20.7,00.0,31.2,23.8,09.4,0000.0,0005.24,0023.00,0004.20
2023-02-11 06:40:00,,0828.5,5.01,0.00,22.1,20.5,00.0,31.2,23.7,09.4,0000.0,0005.24,0022.66,0004.19
2023-02-11 06:41:00,,0828.5,4.99,0.00,22.1,20.3,00.0,31.1,23.7,09.4,0000.0,0005.27,0021.86,0004.18
2023-02-11 06:42:00,,0828.5,4.98,0.00,22.0,20.1,00.0,31.1,23.5,09.5,0000.0,0005.30,0020.21,0004.19
2023-02-11 06:43:00,,0828.5,5.01,0.00,22.0,20.0,00.0,31.1,23.4,09.5,0000.0,0005.30,0019.63,0004.19
2023-02-11 06:44:00,,0828.5,5.02,0.00,21.9,19.9,00.0,31.1,23.4,09.5,0000.0,0005.28,0019.23,0004.17
2023-02-11 06:45:00,,0828.5,5.00,0.00,21.9,20.5,00.0,31.0,23.6,09.5,0000.0,0005.26,0017.52,0004.14
2023-02-11 06:46:00,,0828.5,4.95,0.00,22.0,21.8,00.0,31.0,23.9,09.4,0000.0,0005.19,0016.08,0004.09
2023-02-11 06:47:00,,0828.5,4.99,0.00,22.2,22.7,00.0,31.0,24.2,09.3,0000.0,0005.10,0015.79,0004.04
2023-02-11 06:48:00,,0828.5,4.97,0.00,22.2,22.4,00.0,31.0,24.1,09.3,0000.0,0005.03,0013.48,0004.00
2023-02-11 06:49:00,,0828.5,4.94,0.00,22.2,21.7,00.0,31.0,24.0,09.4,0000.0,0004.98,0013.27,0003.94
2023-02-11 06:50:00,,0828.4,5.01,0.00,22.2,21.1,00.0,31.1,23.8,09.5,0000.0,0004.93,0013.69,0003.89
2023-02-11 06:51:00,,0828.4,5.03,0.00,22.1,20.8,00.0,31.1,23.7,09.5,0000.0,0004.85,0014.04,0003.84
2023-02-11 06:52:00,,0828.5,5.03,0.00,22.1,20.5,00.0,31.1,23.7,09.5,0000.0,0004.75,0014.12,0003.79
2023-02-11 06:53:00,,0828.4,5.00,0.00,22.0,20.3,00.0,31.0,23.6,09.5,0000.0,0004.70,0014.01,0003.73
2023-02-11 06:54:00,,0828.4,4.98,0.00,22.0,20.1,00.0,31.0,23.5,09.5,0000.0,0004.57,0014.07,0003.68
2023-02-11 06:55:00,,0828.4,5.00,0.00,21.9,20.0,00.0,31.0,23.5,09.5,0000.0,0004.50,0014.21,0003.61
2023-02-11 06:56:00,,0828.3,4.98,0.00,21.9,19.9,00.0,31.0,23.5,09.4,0000.0,0004.40,0014.81,0003.57
2023-02-11 06:57:00,,0828.5,5.00,0.00,21.8,19.9,00.0,31.0,23.4,09.4,0000.0,0004.40,0015.67,0003.56
2023-02-11 06:58:00,,0828.3,5.08,0.00,21.9,20.7,00.0,30.9,23.6,09.5,0000.0,0004.44,0015.77,0003.55
2023-02-11 06:59:00,,0828.4,4.98,0.00,22.0,22.0,00.0,30.9,23.9,09.4,0000.0,0004.45,0015.92,0003.53
